OPS 4682 DEB, 38384

Orbit data source: Space-Track

OPS 4682 DEB, 38384 is space debris in LEO originally from a launch on Sat, 03 Apr 1965 UTC launched from the Air Force Western Test Range (AFWTR). Debris objects in space refer to the collection of defunct objects orbiting the Earth. Examples of debris include non-operational satellites, rocket bodies, and fragments generated from explosions, collisions, or faulty payload assembly.

Loading next visibility...
Identifier
38384, 1965-027CM
Orbit
LEO
Country
Flag of USUS
Related business
Manufacturer
Unknown
Mission
Spacecraft
Bus & Motor
Unknown
Mass
Unknown
Launch date (UTC)
1965-04-03 (61 years ago)
Launch vehicle
Unknown
Launch site
Air Force Western Test Range (AFWTR)
Object type
Payload
Rocket body
Debris
Shape & HBR
Unknown shape, 0.1 m
Radar Cross Section
Small (<0.1 m²)

Expand to show TLE details & history
Last TLE update: 3 days ago

TLE from 3 days ago
0 OPS 4682 DEB
1 38384U 65027CM  25290.93564637 -.00000043  00000-0 -17211-3 0  9991
2 38384  90.2628  11.3140 0014867 266.4706  93.4715 12.98426258632896
Epoch: 2025-10-17T22:27Z
TLE epoch observation values (Epoch: 2025-10-17T22:27:19.846Z)
Latitude
-0°
Longitude
7.80743°
Altitude
1,271.845 km
Speed
7.219 km/s
True Right ascension
00h 45m 15s
True Declination
0° 00' 00"
Sunlit
Object was in full shadow at epoch
Visualization orbit readout
Latitude
Unknown
Longitude
Unknown
Altitude
Unknown
Speed
Unknown
Apparent Right ascension
Unknown
Apparent Declination
Unknown
Sunlit
N/A
Visualization observer readout
Local Sidereal Time
18:05:32
Azimuth
Unknown
Elevation
Unknown
Doppler factor
Unknown
Orbital elements
Apogee altitude
1,276.752 km
Perigee altitude
1,254.025 km
Semi-major axis
7,643.525 km
Eccentricity
0.00149
Inclination
90.2628°
RAAN
11.314°
Arg. of periapsis
266.4706°
True anomaly
93.64153°
Mean anomaly
93.4715°
Eccentric anomaly
93.55652°
Mean motion
3.2479 °/min
Orbital period
110.84 mins
BSTAR
-0.00017211
Loading maneuver chart data...
Computing Atmospheric mass density...
Loading historical data...
Loading historical data...
Loading historical data...
Loading historical data...
Loading historical data...
Loading historical data...
Loading historical data...

Documentation

Showing up to 5 results
|